Location: Escondido Hill
(38.9119°N, 104.7815°W)
Time: 03:46:36
(UTC-06:00)

N. Korean satellite - Visible Passes

Search period start: 22 October 2018 00:00
Search period end: 01 November 2018 00:00
Orbit: 459 x 510 km, 97.2° (Epoch: 21 October)

Date Brightness Start Highest point End Pass type
(mag) Time Alt. Az. Time Alt. Az. Time Alt. Az.
22 Oct 10.4 06:16:58 10° ENE 06:18:11 11° E 06:19:24 10° ESE visible
23 Oct 10.0 19:32:48 10° SW 19:35:12 16° W 19:37:37 10° NW visible
24 Oct 8.7 19:07:16 10° SSW 19:10:39 32° W 19:14:02 10° NNW visible
25 Oct 9.7 06:35:45 10° NE 06:38:29 20° E 06:41:10 10° SE visible
25 Oct 7.0 18:42:28 10° S 18:46:10 70° W 18:49:54 10° NNW visible
27 Oct 9.8 19:28:16 10° SW 19:30:53 18° W 19:33:32 10° NW visible
28 Oct 8.4 19:02:53 10° SSW 19:06:20 36° W 19:09:48 10° NNW visible
29 Oct 9.8 06:31:38 10° NE 06:34:08 18° E 06:36:34 10° SE visible
29 Oct 6.8 18:38:09 10° S 18:41:53 80° W 18:45:36 10° NNW visible
30 Oct 10.5 19:50:54 10° W 19:51:10 10° W 19:51:26 10° W visible
31 Oct 9.6 19:23:43 10° SW 19:26:32 20° W 19:29:22 10° NW visible
